TimeCST,TemperatureF,Dew PointF,Humidity,Sea Level PressureIn,VisibilityMPH,Wind Direction,Wind SpeedMPH,Gust SpeedMPH,PrecipitationIn,Events,Conditions,WindDirDegrees,DateUTC
12:53 AM,24.1,23.0,96,30.37,10.0,Calm,Calm,-,N/A,,Clear,0,2013-01-07 06:53:00
1:53 AM,24.1,21.9,91,30.37,10.0,Calm,Calm,-,N/A,,Clear,0,2013-01-07 07:53:00
2:53 AM,23.0,21.0,92,30.37,10.0,Calm,Calm,-,N/A,,Clear,0,2013-01-07 08:53:00
3:53 AM,21.9,19.9,92,30.36,10.0,Calm,Calm,-,N/A,,Clear,0,2013-01-07 09:53:00
4:53 AM,21.9,19.9,92,30.35,10.0,Calm,Calm,-,N/A,,Clear,0,2013-01-07 10:53:00
5:53 AM,19.9,18.0,92,30.37,10.0,Calm,Calm,-,N/A,,Clear,0,2013-01-07 11:53:00
6:53 AM,19.9,18.0,92,30.38,10.0,Calm,Calm,-,N/A,,Clear,0,2013-01-07 12:53:00
7:53 AM,19.9,17.1,89,30.41,10.0,Calm,Calm,-,N/A,,Clear,0,2013-01-07 13:53:00
8:53 AM,25.0,23.0,92,30.43,10.0,Calm,Calm,-,N/A,,Clear,0,2013-01-07 14:53:00
9:53 AM,35.1,30.0,82,30.41,10.0,Calm,Calm,-,N/A,,Clear,0,2013-01-07 15:53:00
10:53 AM,42.1,27.0,55,30.39,10.0,East,4.6,-,N/A,,Clear,80,2013-01-07 16:53:00
11:53 AM,46.0,24.1,42,30.34,10.0,SE,5.8,-,N/A,,Clear,130,2013-01-07 17:53:00
12:53 PM,48.9,25.0,39,30.31,10.0,Variable,3.5,-,N/A,,Clear,0,2013-01-07 18:53:00
1:53 PM,50.0,21.9,33,30.26,10.0,SE,6.9,-,N/A,,Clear,140,2013-01-07 19:53:00
2:53 PM,52.0,21.0,30,30.25,10.0,SSE,5.8,-,N/A,,Clear,150,2013-01-07 20:53:00
3:53 PM,51.1,21.9,32,30.23,10.0,SSE,4.6,-,N/A,,Clear,160,2013-01-07 21:53:00
4:53 PM,48.0,21.9,36,30.22,10.0,Calm,Calm,-,N/A,,Clear,0,2013-01-07 22:53:00
5:53 PM,41.0,25.0,53,30.22,10.0,Calm,Calm,-,N/A,,Clear,0,2013-01-07 23:53:00
6:53 PM,39.9,26.1,58,30.23,10.0,Calm,Calm,-,N/A,,Clear,0,2013-01-08 00:53:00
7:53 PM,37.9,26.1,62,30.22,10.0,Calm,Calm,-,N/A,,Clear,0,2013-01-08 01:53:00
8:53 PM,35.1,27.0,72,30.22,10.0,Calm,Calm,-,N/A,,Clear,0,2013-01-08 02:53:00
9:53 PM,32.0,26.1,79,30.20,10.0,Calm,Calm,-,N/A,,Clear,0,2013-01-08 03:53:00
10:53 PM,28.9,25.0,85,30.20,10.0,Calm,Calm,-,N/A,,Clear,0,2013-01-08 04:53:00
11:53 PM,28.0,25.0,88,30.19,10.0,Calm,Calm,-,N/A,,Clear,0,2013-01-08 05:53:00